SCP
0 0 0 0 -0 -0 -0 -0 -0 0 -0 -0 0 -0 0 0 0 0 0 0 -0 0
0 0 0 0 0 0 0 0 -0 -0 0 0 0 0 0 0 0 0 0 -0 0 0
0 0 0 0 0 0 0 0 0 0 -0 0 0 0 0 0 0 0 0 0 0 0
0 0 0 0 0 0 0 0 0 0 0 0 0 0 0 0 0 0 0 -0 0 0
0 0 0 0 0 0 0 0 0 0 0 0 0 0 0 0 0 0 0 0 0 0
0 0 0 0 0 0 0 0 0 0 0 0 0 0 0 0 0 0 0 0 0 0
0 0 0 0 0 0 0 0 0 0 0 0 0 0 0 0 0 0 0 0 0 0
0 0 0 0 0 0 0 0 0 0 0 0 0 0 0 0 0 0 0 0 0 0
0 0 0 0 0 0 0 0 0 0 0 0 0 0 0 0 0 0 0 0 0 0
1 0 0 0 0 0 0 0 0 0 0 0 0 0 0 0 0 0 0 0 0 0
1 1 1 0 0 0 0 0 0 0 0 0 0 0 0 0 0 0 0 0 0 0
1 1 1 0 0 0 1 0 0 0 0 0 0 0 0 0 0 0 0 0 0 0
1 1 1 1 1 0 0 0 0 0 0 0 0 0 0 0 0 0 0 0 0 0
1 1 0 0 0 0 0 0 0 0 0 0 0 0 0 0 0 0 0 0 0 0
Wind_Speed_500mb
42 38 28 28 20 20 15 23 26 30 18 17 15 13 17 19 10 3 11 11 12 11
46 42 37 32 25 23 18 18 38 30 20 20 25 21 19 13 16 10 11 14 17 9
47 46 47 39 37 26 19 18 30 19 15 23 27 27 22 20 20 17 23 21 24 16
50 53 45 47 39 33 32 25 16 31 23 21 17 17 21 19 23 28 24 13 14 10
41 45 52 53 46 46 41 34 29 32 34 33 30 30 31 30 20 26 23 16 16 17
40 40 44 50 48 43 39 43 41 40 40 37 37 39 37 28 15 15 21 18 18 15
48 43 41 39 38 33 34 32 33 37 37 29 28 26 28 27 22 21 17 24 24 23
52 47 44 43 40 36 37 36 37 33 32 28 27 27 26 27 23 27 22 18 30 33
52 50 48 45 47 42 36 35 32 32 30 29 29 30 27 29 27 28 25 23 23 26
54 53 46 43 41 40 36 34 32 30 31 31 35 34 30 29 24 26 27 22 24 24
52 50 43 40 37 30 29 31 30 29 32 34 41 34 30 28 24 26 25 28 27 24
57 50 41 34 32 35 36 36 37 38 36 40 42 35 28 24 22 22 29 28 23 20
53 44 43 43 38 33 31 33 35 33 26 31 37 25 24 26 22 29 28 24 20 22
43 41 39 32 28 27 20 19 19 23 19 14 15 15 19 25 26 30 28 27 24 23
Wind_Direction_500mb
196 192 192 163 160 175 209 217 203 195 200 188 188 233 245 248 221 304 306 298 295 266
201 195 173 176 187 204 199 210 201 190 199 196 202 207 221 222 212 218 270 285 267 267
210 201 193 189 194 206 198 172 179 192 193 202 211 222 238 235 233 233 246 261 254 271
207 209 202 206 201 204 218 214 192 188 206 212 229 244 246 248 255 246 261 244 294 297
208 212 211 214 211 208 218 226 223 219 227 232 222 230 244 259 256 236 237 250 278 279
209 208 205 215 222 219 220 226 233 235 239 252 249 247 249 253 245 252 249 253 264 283
216 219 213 211 215 221 231 231 232 238 244 247 241 240 241 242 255 264 262 249 249 263
217 222 218 215 226 227 227 241 244 244 246 247 251 249 248 243 242 256 273 267 250 260
214 217 218 217 218 227 232 235 241 245 246 253 249 254 254 256 251 255 266 273 263 265
212 215 219 217 221 226 231 236 241 247 249 244 250 250 252 252 251 259 272 271 265 263
212 216 216 215 215 219 226 234 240 253 253 252 255 256 251 250 250 251 254 256 266 271
210 209 209 209 208 212 223 233 241 244 248 252 259 256 251 245 247 239 245 254 262 266
207 205 203 206 215 218 222 243 252 261 269 261 250 251 249 237 251 254 247 257 276 284
183 192 199 208 230 241 238 243 247 258 268 251 229 226 247 252 240 238 249 264 270 282
Wind_Speed_850mb
42 38 28 28 20 20 15 23 26 30 18 17 15 13 17 19 10 3 11 11 12 11
46 42 37 32 25 23 18 18 38 30 20 20 25 21 19 13 16 10 11 14 17 9
47 46 47 39 37 26 19 18 30 19 15 23 27 27 22 20 20 17 23 21 24 16
50 53 45 47 39 33 32 25 16 31 23 21 17 17 21 19 23 28 24 13 14 10
41 45 52 53 46 46 41 34 29 32 34 33 30 30 31 30 20 26 23 16 16 17
40 40 44 50 48 43 39 43 41 40 40 37 37 39 37 28 15 15 21 18 18 15
48 43 41 39 38 33 34 32 33 37 37 29 28 26 28 27 22 21 17 24 24 23
52 47 44 43 40 36 37 36 37 33 32 28 27 27 26 27 23 27 22 18 30 33
52 50 48 45 47 42 36 35 32 32 30 29 29 30 27 29 27 28 25 23 23 26
54 53 46 43 41 40 36 34 32 30 31 31 35 34 30 29 24 26 27 22 24 24
52 50 43 40 37 30 29 31 30 29 32 34 41 34 30 28 24 26 25 28 27 24
57 50 41 34 32 35 36 36 37 38 36 40 42 35 28 24 22 22 29 28 23 20
53 44 43 43 38 33 31 33 35 33 26 31 37 25 24 26 22 29 28 24 20 22
43 41 39 32 28 27 20 19 19 23 19 14 15 15 19 25 26 30 28 27 24 23
Wind_Direction_850mb
196 192 192 163 160 175 209 217 203 195 200 188 188 233 245 248 221 304 306 298 295 266
201 195 173 176 187 204 199 210 201 190 199 196 202 207 221 222 212 218 270 285 267 267
210 201 193 189 194 206 198 172 179 192 193 202 211 222 238 235 233 233 246 261 254 271
207 209 202 206 201 204 218 214 192 188 206 212 229 244 246 248 255 246 261 244 294 297
208 212 211 214 211 208 218 226 223 219 227 232 222 230 244 259 256 236 237 250 278 279
209 208 205 215 222 219 220 226 233 235 239 252 249 247 249 253 245 252 249 253 264 283
216 219 213 211 215 221 231 231 232 238 244 247 241 240 241 242 255 264 262 249 249 263
217 222 218 215 226 227 227 241 244 244 246 247 251 249 248 243 242 256 273 267 250 260
214 217 218 217 218 227 232 235 241 245 246 253 249 254 254 256 251 255 266 273 263 265
212 215 219 217 221 226 231 236 241 247 249 244 250 250 252 252 251 259 272 271 265 263
212 216 216 215 215 219 226 234 240 253 253 252 255 256 251 250 250 251 254 256 266 271
210 209 209 209 208 212 223 233 241 244 248 252 259 256 251 245 247 239 245 254 262 266
207 205 203 206 215 218 222 243 252 261 269 261 250 251 249 237 251 254 247 257 276 284
183 192 199 208 230 241 238 243 247 258 268 251 229 226 247 252 240 238 249 264 270 282